Time,TemperatureF,DewpointF,PressureIn,WindDirection,WindDirectionDegrees,WindSpeedMPH,WindSpeedGustMPH,Humidity,HourlyPrecipIn,Conditions,Clouds,dailyrainin,SolarRadiationWatts/m^2,SoftwareType,DateUTC
2013-05-02 00:01:00,33.0,11.0,-100.00,NW,320,3.0,6.0,39,0.00,,,0.00,13.000000,,2013-05-02 06:01:00,
2013-05-02 00:12:00,33.0,11.0,-100.00,NW,320,3.0,6.0,39,0.00,,,0.00,13.000000,,2013-05-02 06:12:00,
2013-05-02 00:21:00,33.0,11.0,-100.00,NW,320,3.0,6.0,39,0.00,,,0.00,13.000000,,2013-05-02 06:21:00,
2013-05-02 00:31:00,33.0,11.0,-100.00,NW,320,3.0,6.0,39,0.00,,,0.00,13.000000,,2013-05-02 06:31:00,
2013-05-02 01:02:00,33.0,10.0,-100.00,NW,321,2.0,7.0,37,0.00,,,0.00,18.000000,,2013-05-02 07:02:00,
2013-05-02 01:11:00,33.0,10.0,-100.00,NW,321,2.0,7.0,37,0.00,,,0.00,18.000000,,2013-05-02 07:11:00,
2013-05-02 01:21:00,33.0,10.0,-100.00,NW,321,2.0,7.0,37,0.00,,,0.00,18.000000,,2013-05-02 07:21:00,
2013-05-02 01:32:00,33.0,10.0,-100.00,NW,321,2.0,7.0,37,0.00,,,0.00,18.000000,,2013-05-02 07:32:00,
2013-05-02 02:02:00,32.0,10.0,-100.00,WNW,302,4.0,6.0,40,0.00,,,0.00,14.000000,,2013-05-02 08:02:00,
2013-05-02 02:11:00,32.0,10.0,-100.00,WNW,302,4.0,6.0,40,0.00,,,0.00,14.000000,,2013-05-02 08:11:00,
2013-05-02 02:22:00,32.0,10.0,-100.00,WNW,302,4.0,6.0,40,0.00,,,0.00,14.000000,,2013-05-02 08:22:00,
2013-05-02 02:32:00,32.0,10.0,-100.00,WNW,302,4.0,6.0,40,0.00,,,0.00,14.000000,,2013-05-02 08:32:00,
2013-05-02 03:02:00,32.0,9.0,-100.00,NW,311,2.0,6.0,38,0.00,,,0.00,20.000000,,2013-05-02 09:02:00,
2013-05-02 03:12:00,32.0,9.0,-100.00,NW,311,2.0,6.0,38,0.00,,,0.00,20.000000,,2013-05-02 09:12:00,
2013-05-02 03:21:00,32.0,9.0,-100.00,NW,311,2.0,6.0,38,0.00,,,0.00,20.000000,,2013-05-02 09:21:00,
2013-05-02 03:32:00,32.0,9.0,-100.00,NW,311,2.0,6.0,38,0.00,,,0.00,20.000000,,2013-05-02 09:32:00,
2013-05-02 04:03:00,31.0,13.0,-100.00,WNW,285,5.0,8.0,47,0.00,,,0.00,22.000000,,2013-05-02 10:03:00,
2013-05-02 04:12:00,31.0,13.0,-100.00,WNW,285,5.0,8.0,47,0.00,,,0.00,22.000000,,2013-05-02 10:12:00,
2013-05-02 04:22:00,31.0,13.0,-100.00,WNW,285,5.0,8.0,47,0.00,,,0.00,22.000000,,2013-05-02 10:22:00,
2013-05-02 04:33:00,31.0,13.0,-100.00,WNW,285,5.0,8.0,47,0.00,,,0.00,22.000000,,2013-05-02 10:33:00,
2013-05-02 05:02:00,31.0,18.0,-100.00,WNW,291,5.0,7.0,57,0.00,,,0.00,16.000000,,2013-05-02 11:02:00,
2013-05-02 05:12:00,31.0,18.0,-100.00,WNW,291,5.0,7.0,57,0.00,,,0.00,16.000000,,2013-05-02 11:12:00,
2013-05-02 05:22:00,31.0,18.0,-100.00,WNW,291,5.0,7.0,57,0.00,,,0.00,16.000000,,2013-05-02 11:22:00,
2013-05-02 05:32:00,31.0,18.0,-100.00,WNW,291,5.0,7.0,57,0.00,,,0.00,16.000000,,2013-05-02 11:32:00,
2013-05-02 05:52:00,32.0,21.0,-100.00,West,281,9.0,16.0,64,0.00,,,0.00,33.000000,,2013-05-02 11:52:00,
2013-05-02 06:01:00,32.0,21.0,-100.00,West,281,9.0,16.0,64,0.00,,,0.00,33.000000,,2013-05-02 12:01:00,
2013-05-02 06:11:00,32.0,21.0,-100.00,West,281,9.0,16.0,64,0.00,,,0.00,33.000000,,2013-05-02 12:11:00,
2013-05-02 06:21:00,32.0,21.0,-100.00,West,281,9.0,16.0,64,0.00,,,0.00,33.000000,,2013-05-02 12:21:00,
2013-05-02 06:32:00,32.0,21.0,-100.00,West,281,9.0,16.0,64,0.00,,,0.00,33.000000,,2013-05-02 12:32:00,
2013-05-02 07:01:00,32.0,21.0,-100.00,West,262,4.0,18.0,63,0.00,,,0.00,40.000000,,2013-05-02 13:01:00,
2013-05-02 07:11:00,32.0,21.0,-100.00,West,262,4.0,18.0,63,0.00,,,0.00,40.000000,,2013-05-02 13:11:00,
2013-05-02 07:21:00,32.0,21.0,-100.00,West,262,4.0,18.0,63,0.00,,,0.00,40.000000,,2013-05-02 13:21:00,
2013-05-02 07:32:00,32.0,21.0,-100.00,West,262,4.0,18.0,63,0.00,,,0.00,40.000000,,2013-05-02 13:32:00,
2013-05-02 08:02:00,33.0,19.0,-100.00,WSW,244,6.0,14.0,55,0.00,,,0.00,272.000000,,2013-05-02 14:02:00,
2013-05-02 08:11:00,33.0,19.0,-100.00,WSW,244,6.0,14.0,55,0.00,,,0.00,272.000000,,2013-05-02 14:11:00,
2013-05-02 08:22:00,33.0,19.0,-100.00,WSW,244,6.0,14.0,55,0.00,,,0.00,272.000000,,2013-05-02 14:22:00,
2013-05-02 08:32:00,33.0,19.0,-100.00,WSW,244,6.0,14.0,55,0.00,,,0.00,272.000000,,2013-05-02 14:32:00,
2013-05-02 09:02:00,36.0,18.0,-100.00,WSW,248,8.0,16.0,48,0.00,,,0.00,587.000000,,2013-05-02 15:02:00,
2013-05-02 09:12:00,36.0,18.0,-100.00,WSW,248,8.0,16.0,48,0.00,,,0.00,587.000000,,2013-05-02 15:12:00,
2013-05-02 09:22:00,36.0,18.0,-100.00,WSW,248,8.0,16.0,48,0.00,,,0.00,587.000000,,2013-05-02 15:22:00,
2013-05-02 09:33:00,36.0,18.0,-100.00,WSW,248,8.0,16.0,48,0.00,,,0.00,587.000000,,2013-05-02 15:33:00,
2013-05-02 10:03:00,38.0,18.0,-100.00,West,265,7.0,17.0,43,0.00,,,0.00,568.000000,,2013-05-02 16:03:00,
2013-05-02 10:13:00,38.0,18.0,-100.00,West,265,7.0,17.0,43,0.00,,,0.00,568.000000,,2013-05-02 16:13:00,
2013-05-02 10:22:00,38.0,18.0,-100.00,West,265,7.0,17.0,43,0.00,,,0.00,568.000000,,2013-05-02 16:22:00,
2013-05-02 10:32:00,38.0,18.0,-100.00,West,265,7.0,17.0,43,0.00,,,0.00,568.000000,,2013-05-02 16:32:00,
2013-05-02 11:02:00,41.0,18.0,-100.00,SE,126,6.0,19.0,39,0.00,,,0.00,481.000000,,2013-05-02 17:02:00,
2013-05-02 11:12:00,41.0,18.0,-100.00,SE,126,6.0,19.0,39,0.00,,,0.00,481.000000,,2013-05-02 17:12:00,
2013-05-02 11:22:00,41.0,18.0,-100.00,SE,126,6.0,19.0,39,0.00,,,0.00,481.000000,,2013-05-02 17:22:00,
2013-05-02 11:32:00,41.0,18.0,-100.00,SE,126,6.0,19.0,39,0.00,,,0.00,481.000000,,2013-05-02 17:32:00,
2013-05-02 12:01:00,39.0,14.0,-100.00,West,262,6.0,17.0,35,0.00,,,0.00,195.000000,,2013-05-02 18:01:00,
2013-05-02 12:11:00,39.0,14.0,-100.00,West,262,6.0,17.0,35,0.00,,,0.00,195.000000,,2013-05-02 18:11:00,
2013-05-02 12:21:00,39.0,14.0,-100.00,West,262,6.0,17.0,35,0.00,,,0.00,195.000000,,2013-05-02 18:21:00,
2013-05-02 12:32:00,39.0,14.0,-100.00,West,262,6.0,17.0,35,0.00,,,0.00,195.000000,,2013-05-02 18:32:00,
2013-05-02 13:01:00,39.0,20.0,-100.00,SW,223,4.0,14.0,47,0.00,,,0.00,18.000000,,2013-05-02 19:01:00,
2013-05-02 13:11:00,39.0,20.0,-100.00,SW,223,4.0,14.0,47,0.00,,,0.00,18.000000,,2013-05-02 19:11:00,
2013-05-02 13:22:00,39.0,20.0,-100.00,SW,223,4.0,14.0,47,0.00,,,0.00,18.000000,,2013-05-02 19:22:00,
2013-05-02 13:32:00,39.0,20.0,-100.00,SW,223,4.0,14.0,47,0.00,,,0.00,18.000000,,2013-05-02 19:32:00,
2013-05-02 14:02:00,38.0,25.0,-100.00,SE,138,4.0,15.0,60,0.00,,,0.00,13.000000,,2013-05-02 20:02:00,
2013-05-02 14:11:00,38.0,25.0,-100.00,SE,138,4.0,15.0,60,0.00,,,0.00,13.000000,,2013-05-02 20:11:00,
2013-05-02 14:22:00,38.0,25.0,-100.00,SE,138,4.0,15.0,60,0.00,,,0.00,13.000000,,2013-05-02 20:22:00,
2013-05-02 14:32:00,38.0,25.0,-100.00,SE,138,4.0,15.0,60,0.00,,,0.00,13.000000,,2013-05-02 20:32:00,
2013-05-02 15:01:00,38.0,25.0,-100.00,ESE,110,5.0,16.0,59,0.00,,,0.00,47.000000,,2013-05-02 21:01:00,
2013-05-02 15:11:00,38.0,25.0,-100.00,ESE,110,5.0,16.0,59,0.00,,,0.00,47.000000,,2013-05-02 21:11:00,
2013-05-02 15:21:00,38.0,25.0,-100.00,ESE,110,5.0,16.0,59,0.00,,,0.00,47.000000,,2013-05-02 21:21:00,
2013-05-02 15:33:00,38.0,25.0,-100.00,ESE,110,5.0,16.0,59,0.00,,,0.00,47.000000,,2013-05-02 21:33:00,
2013-05-02 16:03:00,41.0,24.0,-100.00,ENE,67,3.0,15.0,51,0.00,,,0.00,28.000000,,2013-05-02 22:03:00,
2013-05-02 16:12:00,41.0,24.0,-100.00,ENE,67,3.0,15.0,51,0.00,,,0.00,28.000000,,2013-05-02 22:12:00,
2013-05-02 16:22:00,41.0,24.0,-100.00,ENE,67,3.0,15.0,51,0.00,,,0.00,28.000000,,2013-05-02 22:22:00,
2013-05-02 16:32:00,41.0,24.0,-100.00,ENE,67,3.0,15.0,51,0.00,,,0.00,28.000000,,2013-05-02 22:32:00,
2013-05-02 17:02:00,44.0,22.0,-100.00,East,98,4.0,8.0,42,0.00,,,0.00,35.000000,,2013-05-02 23:02:00,
2013-05-02 17:11:00,44.0,22.0,-100.00,East,98,4.0,8.0,42,0.00,,,0.00,35.000000,,2013-05-02 23:11:00,
2013-05-02 17:22:00,44.0,22.0,-100.00,East,98,4.0,8.0,42,0.00,,,0.00,35.000000,,2013-05-02 23:22:00,
2013-05-02 17:32:00,44.0,22.0,-100.00,East,98,4.0,8.0,42,0.00,,,0.00,35.000000,,2013-05-02 23:32:00,
2013-05-02 18:01:00,45.0,21.0,-100.00,NNW,336,2.0,11.0,38,0.00,,,0.00,15.000000,,2013-05-03 00:01:00,
2013-05-02 18:11:00,45.0,21.0,-100.00,NNW,336,2.0,11.0,38,0.00,,,0.00,15.000000,,2013-05-03 00:11:00,
2013-05-02 18:21:00,45.0,21.0,-100.00,NNW,336,2.0,11.0,38,0.00,,,0.00,15.000000,,2013-05-03 00:21:00,
2013-05-02 18:31:00,45.0,21.0,-100.00,NNW,336,2.0,11.0,38,0.00,,,0.00,15.000000,,2013-05-03 00:31:00,
2013-05-02 19:01:00,42.0,20.0,-100.00,East,83,3.0,10.0,41,0.00,,,0.00,3.000000,,2013-05-03 01:01:00,
2013-05-02 19:11:00,42.0,20.0,-100.00,East,83,3.0,10.0,41,0.00,,,0.00,3.000000,,2013-05-03 01:11:00,
2013-05-02 19:21:00,42.0,20.0,-100.00,East,83,3.0,10.0,41,0.00,,,0.00,3.000000,,2013-05-03 01:21:00,
2013-05-02 19:31:00,42.0,20.0,-100.00,East,83,3.0,10.0,41,0.00,,,0.00,3.000000,,2013-05-03 01:31:00,
2013-05-02 20:01:00,43.0,20.0,-100.00,East,80,2.0,9.0,39,0.00,,,0.00,0.000000,,2013-05-03 02:01:00,
2013-05-02 20:11:00,43.0,20.0,-100.00,East,80,2.0,9.0,39,0.00,,,0.00,0.000000,,2013-05-03 02:11:00,
2013-05-02 20:21:00,43.0,20.0,-100.00,East,80,2.0,9.0,39,0.00,,,0.00,0.000000,,2013-05-03 02:21:00,
2013-05-02 20:32:00,43.0,20.0,-100.00,East,80,2.0,9.0,39,0.00,,,0.00,0.000000,,2013-05-03 02:32:00,
2013-05-02 21:01:00,40.0,20.0,-100.00,NW,307,1.0,5.0,45,0.00,,,0.00,0.000000,,2013-05-03 03:01:00,
2013-05-02 21:11:00,40.0,20.0,-100.00,NW,307,1.0,5.0,45,0.00,,,0.00,0.000000,,2013-05-03 03:11:00,
2013-05-02 21:21:00,40.0,20.0,-100.00,NW,307,1.0,5.0,45,0.00,,,0.00,0.000000,,2013-05-03 03:21:00,
2013-05-02 21:33:00,40.0,20.0,-100.00,NW,307,1.0,5.0,45,0.00,,,0.00,0.000000,,2013-05-03 03:33:00,
2013-05-02 22:03:00,38.0,19.0,-100.00,SW,235,2.0,3.0,45,0.00,,,0.00,2.000000,,2013-05-03 04:03:00,
2013-05-02 22:12:00,38.0,19.0,-100.00,SW,235,2.0,3.0,45,0.00,,,0.00,2.000000,,2013-05-03 04:12:00,
2013-05-02 22:22:00,38.0,19.0,-100.00,SW,235,2.0,3.0,45,0.00,,,0.00,2.000000,,2013-05-03 04:22:00,
2013-05-02 22:32:00,38.0,19.0,-100.00,SW,235,2.0,3.0,45,0.00,,,0.00,2.000000,,2013-05-03 04:32:00,
2013-05-02 23:02:00,37.0,17.0,-100.00,SW,235,2.0,4.0,43,0.00,,,0.00,3.000000,,2013-05-03 05:02:00,
2013-05-02 23:12:00,37.0,17.0,-100.00,SW,235,2.0,4.0,43,0.00,,,0.00,3.000000,,2013-05-03 05:12:00,
2013-05-02 23:21:00,37.0,17.0,-100.00,SW,235,2.0,4.0,43,0.00,,,0.00,3.000000,,2013-05-03 05:21:00,
2013-05-02 23:32:00,37.0,17.0,-100.00,SW,235,2.0,4.0,43,0.00,,,0.00,3.000000,,2013-05-03 05:32:00,